Terminal Aerodrome Forecast
Issued by NWS

Home | Current Version | Previous Version | Graphics & Text | Print | Product List | Glossary On
Versions: 1 2 3 4 5 6 7 8 9 10 11 12 13 14 15 16 17 18
000
FTUS43 KABR 290523
TAFMBG
TAF
KMBG 290523Z 2906/3006 VRB06KT P6SM VCSH OVC090
     FM290900 36016KT P6SM OVC015
     FM291600 36015G23KT P6SM BKN250
     FM300000 VRB05KT P6SM SKC=

USA.gov is the U.S. government's official web portal to all federal, state and local government web resources and services.